This is the latest recevied weather packets stored in our database for station/object AG7BI. If no packets are shown the sender has not sent any weather packets the latest 10 day(s).
| Time | Temp. | Humidity | Pressure | Rain* | Wind** | Luminosity | Snow |
|---|---|---|---|---|---|---|---|
| 1777894552 | 10° C | 78% | 1009.8 hPa | 0 mm | - | - | - |
| 1777894252 | 10° C | 77% | 1010 hPa | 0 mm | - | - | - |
| 1777893952 | 10.56° C | 76% | 1010.3 hPa | 0 mm | - | - | - |
| 1777893652 | 10.56° C | 74% | 1010 hPa | 0 mm | - | - | - |
| 1777893352 | 10.56° C | 74% | 1010.1 hPa | 0 mm | - | - | - |
| 1777893052 | 10.56° C | 74% | 1010.1 hPa | 0 mm | - | - | - |
| 1777892752 | 10.56° C | 74% | 1010.1 hPa | 0 mm | - | - | - |
| 1777892452 | 10.56° C | 74% | 1010.1 hPa | 0 mm | - | - | - |
| 1777892152 | 10° C | 74% | 1010.2 hPa | 0 mm | - | - | - |
| 1777891852 | 10° C | 74% | 1010.1 hPa | 0 mm | - | - | - |
| 1777891552 | 10° C | 74% | 1010 hPa | 0 mm | - | - | - |
| 1777891252 | 10° C | 73% | 1010.1 hPa | 0 mm | - | - | - |
| 1777890952 | 10.56° C | 73% | 1010.2 hPa | 0 mm | - | - | - |
| 1777890652 | 10.56° C | 74% | 1010 hPa | 0 mm | - | - | - |
| 1777890352 | 10.56° C | 73% | 1010 hPa | 0 mm | - | - | - |
| 1777890052 | 10.56° C | 74% | 1010 hPa | 0 mm | - | - | - |
| 1777889752 | 10.56° C | 74% | 1010.1 hPa | 0 mm | - | - | - |
| 1777889452 | 10.56° C | 74% | 1009.8 hPa | 0 mm | - | - | - |
| 1777889152 | 10.56° C | 73% | 1010.3 hPa | 0 mm | - | - | - |
| 1777888852 | 10.56° C | 72% | 1010 hPa | 0 mm | - | - | - |
| 1777888552 | 10.56° C | 73% | 1009.9 hPa | 0 mm | - | - | - |
| 1777888252 | 10.56° C | 72% | 1009.9 hPa | 0 mm | - | - | - |
| 1777887952 | 11.11° C | 71% | 1010 hPa | 0 mm | - | - | - |
| 1777887652 | 11.67° C | 66% | 1009.8 hPa | 0 mm | - | - | - |
| 1777887352 | 11.67° C | 69% | 1009.9 hPa | 0 mm | - | - | - |
* Rain latest hour (hover to see other rain measurements)
** Current wind speed in m/s (hover to see current wind gust speed)